Time,TemperatureF,DewpointF,PressureIn,WindDirection,WindDirectionDegrees,WindSpeedMPH,WindSpeedGustMPH,Humidity,HourlyPrecipIn,Conditions,Clouds,dailyrainin,SoftwareType,DateUTC
2013-12-25 00:13:00,18.4,10.0,30.53,North,11,2.0,-999.0,71,-99.99,,,0.00,weatherlink.com 1.10,2013-12-25 05:13:00,
2013-12-25 00:28:00,18.8,11.0,30.53,North,10,1.0,-999.0,71,-99.99,,,0.00,weatherlink.com 1.10,2013-12-25 05:28:00,
2013-12-25 00:43:00,18.5,11.0,30.52,NNE,28,0.0,-999.0,71,-99.99,,,0.00,weatherlink.com 1.10,2013-12-25 05:43:00,
2013-12-25 00:58:00,18.7,10.0,30.52,NNE,28,0.0,-999.0,70,-99.99,,,0.00,weatherlink.com 1.10,2013-12-25 05:58:00,
2013-12-25 01:13:00,18.2,11.0,30.53,NNE,28,0.0,-999.0,72,-99.99,,,0.00,weatherlink.com 1.10,2013-12-25 06:13:00,
2013-12-25 01:28:00,18.0,10.0,30.55,NNE,28,0.0,-999.0,71,-99.99,,,0.00,weatherlink.com 1.10,2013-12-25 06:28:00,
2013-12-25 01:43:00,17.9,11.0,30.55,NNE,28,2.0,-999.0,73,-99.99,,,0.00,weatherlink.com 1.10,2013-12-25 06:43:00,
2013-12-25 01:58:00,17.5,11.0,30.54,NE,42,0.0,-999.0,75,-99.99,,,0.00,weatherlink.com 1.10,2013-12-25 06:58:00,
2013-12-25 02:13:00,17.3,11.0,30.55,NE,42,0.0,-999.0,75,-99.99,,,0.00,weatherlink.com 1.10,2013-12-25 07:13:00,
2013-12-25 02:28:00,16.8,11.0,30.55,NE,42,0.0,-999.0,77,-99.99,,,0.00,weatherlink.com 1.10,2013-12-25 07:28:00,
2013-12-25 02:43:00,16.4,11.0,30.56,NE,42,2.0,-999.0,78,-99.99,,,0.00,weatherlink.com 1.10,2013-12-25 07:43:00,
2013-12-25 02:58:00,16.2,11.0,30.56,NE,42,2.0,-999.0,79,-99.99,,,0.00,weatherlink.com 1.10,2013-12-25 07:58:00,
2013-12-25 03:13:00,16.3,11.0,30.55,NE,49,2.0,-999.0,80,-99.99,,,0.00,weatherlink.com 1.10,2013-12-25 08:13:00,
2013-12-25 03:28:00,16.1,12.0,30.55,NE,49,0.0,-999.0,82,-99.99,,,0.00,weatherlink.com 1.10,2013-12-25 08:28:00,
2013-12-25 03:43:00,16.5,12.0,30.55,NE,49,0.0,-999.0,83,-99.99,,,0.00,weatherlink.com 1.10,2013-12-25 08:43:00,
2013-12-25 03:58:00,16.9,13.0,30.55,NE,49,0.0,-999.0,84,-99.99,,,0.00,weatherlink.com 1.10,2013-12-25 08:58:00,
2013-12-25 04:13:00,17.3,14.0,30.55,NE,49,0.0,-999.0,85,-99.99,,,0.00,weatherlink.com 1.10,2013-12-25 09:13:00,
2013-12-25 04:28:00,17.5,14.0,30.55,NE,49,0.0,-999.0,85,-99.99,,,0.00,weatherlink.com 1.10,2013-12-25 09:28:00,
2013-12-25 04:43:00,17.7,14.0,30.55,NE,49,0.0,-999.0,85,-99.99,,,0.00,weatherlink.com 1.10,2013-12-25 09:43:00,
2013-12-25 04:58:00,17.9,14.0,30.54,NE,49,3.0,-999.0,84,-99.99,,,0.00,weatherlink.com 1.10,2013-12-25 09:58:00,
2013-12-25 05:13:00,18.2,14.0,30.55,NE,49,0.0,-999.0,84,-99.99,,,0.00,weatherlink.com 1.10,2013-12-25 10:13:00,
2013-12-25 05:28:00,18.2,14.0,30.54,NE,49,2.0,-999.0,84,-99.99,,,0.00,weatherlink.com 1.10,2013-12-25 10:28:00,
2013-12-25 05:43:00,17.7,14.0,30.54,NE,49,0.0,-999.0,84,-99.99,,,0.00,weatherlink.com 1.10,2013-12-25 10:43:00,
2013-12-25 05:58:00,17.0,13.0,30.54,NE,49,0.0,-999.0,84,-99.99,,,0.00,weatherlink.com 1.10,2013-12-25 10:58:00,
2013-12-25 06:13:00,16.4,12.0,30.55,NE,48,0.0,-999.0,84,-99.99,,,0.00,weatherlink.com 1.10,2013-12-25 11:13:00,
2013-12-25 06:28:00,16.4,13.0,30.55,NE,49,0.0,-999.0,85,-99.99,,,0.00,weatherlink.com 1.10,2013-12-25 11:28:00,
2013-12-25 06:43:00,16.2,13.0,30.56,NE,49,0.0,-999.0,85,-99.99,,,0.00,weatherlink.com 1.10,2013-12-25 11:43:00,
2013-12-25 06:58:00,15.7,12.0,30.56,NE,49,0.0,-999.0,84,-99.99,,,0.00,weatherlink.com 1.10,2013-12-25 11:58:00,
2013-12-25 07:13:00,15.1,11.0,30.56,NE,49,0.0,-999.0,85,-99.99,,,0.00,weatherlink.com 1.10,2013-12-25 12:13:00,
2013-12-25 07:28:00,15.1,11.0,30.57,NE,49,0.0,-999.0,85,-99.99,,,0.00,weatherlink.com 1.10,2013-12-25 12:28:00,
2013-12-25 07:43:00,15.2,12.0,30.56,NE,49,0.0,-999.0,86,-99.99,,,0.00,weatherlink.com 1.10,2013-12-25 12:43:00,
2013-12-25 07:58:00,15.1,12.0,30.57,NE,49,0.0,-999.0,87,-99.99,,,0.00,weatherlink.com 1.10,2013-12-25 12:58:00,
2013-12-25 08:13:00,15.1,12.0,30.58,NE,49,0.0,-999.0,87,-99.99,,,0.00,weatherlink.com 1.10,2013-12-25 13:13:00,
2013-12-25 08:28:00,15.6,13.0,30.58,NE,49,0.0,-999.0,88,-99.99,,,0.00,weatherlink.com 1.10,2013-12-25 13:28:00,
2013-12-25 08:43:00,18.0,15.0,30.58,NE,49,0.0,-999.0,87,-99.99,,,0.00,weatherlink.com 1.10,2013-12-25 13:43:00,
2013-12-25 08:58:00,19.6,15.0,30.60,NE,49,0.0,-999.0,82,-99.99,,,0.00,weatherlink.com 1.10,2013-12-25 13:58:00,
2013-12-25 09:13:00,20.8,15.0,30.60,NE,49,2.0,-999.0,77,-99.99,,,0.00,weatherlink.com 1.10,2013-12-25 14:13:00,
2013-12-25 09:28:00,21.3,15.0,30.59,NE,49,0.0,-999.0,76,-99.99,,,0.00,weatherlink.com 1.10,2013-12-25 14:28:00,
2013-12-25 09:43:00,21.8,15.0,30.59,NE,49,2.0,-999.0,74,-99.99,,,0.00,weatherlink.com 1.10,2013-12-25 14:43:00,
2013-12-25 09:58:00,22.1,13.0,30.59,NE,49,2.0,-999.0,69,-99.99,,,0.00,weatherlink.com 1.10,2013-12-25 14:58:00,
2013-12-25 10:13:00,22.9,14.0,30.59,NE,49,4.0,-999.0,69,-99.99,,,0.00,weatherlink.com 1.10,2013-12-25 15:13:00,
2013-12-25 10:28:00,23.5,14.0,30.59,NE,49,0.0,-999.0,68,-99.99,,,0.00,weatherlink.com 1.10,2013-12-25 15:28:00,
2013-12-25 10:43:00,24.1,14.0,30.59,NE,37,2.0,-999.0,65,-99.99,,,0.00,weatherlink.com 1.10,2013-12-25 15:43:00,
2013-12-25 10:58:00,24.2,13.0,30.58,ENE,74,0.0,-999.0,63,-99.99,,,0.00,weatherlink.com 1.10,2013-12-25 15:58:00,
2013-12-25 11:13:00,25.1,15.0,30.57,ENE,74,1.0,-999.0,65,-99.99,,,0.00,weatherlink.com 1.10,2013-12-25 16:13:00,
2013-12-25 11:28:00,25.7,15.0,30.56,NW,322,0.0,-999.0,63,-99.99,,,0.00,weatherlink.com 1.10,2013-12-25 16:28:00,
2013-12-25 11:43:00,26.2,15.0,30.56,WNW,288,2.0,-999.0,63,-99.99,,,0.00,weatherlink.com 1.10,2013-12-25 16:43:00,
2013-12-25 11:58:00,26.7,15.0,30.54,WSW,248,0.0,-999.0,62,-99.99,,,0.00,weatherlink.com 1.10,2013-12-25 16:58:00,
2013-12-25 12:13:00,27.6,16.0,30.53,SSW,205,4.0,-999.0,61,-99.99,,,0.00,weatherlink.com 1.10,2013-12-25 17:13:00,
2013-12-25 12:28:00,27.9,16.0,30.52,WSW,239,2.0,-999.0,61,-99.99,,,0.00,weatherlink.com 1.10,2013-12-25 17:28:00,
2013-12-25 12:43:00,28.8,16.0,30.52,SW,219,5.0,-999.0,60,-99.99,,,0.00,weatherlink.com 1.10,2013-12-25 17:43:00,
2013-12-25 12:58:00,28.9,16.0,30.51,SW,236,3.0,-999.0,59,-99.99,,,0.00,weatherlink.com 1.10,2013-12-25 17:58:00,
2013-12-25 13:13:00,29.9,16.0,30.49,SW,230,3.0,-999.0,57,-99.99,,,0.00,weatherlink.com 1.10,2013-12-25 18:13:00,
2013-12-25 13:28:00,30.5,16.0,30.48,SSW,207,3.0,-999.0,56,-99.99,,,0.00,weatherlink.com 1.10,2013-12-25 18:28:00,
2013-12-25 13:43:00,31.1,17.0,30.48,WSW,254,5.0,-999.0,57,-99.99,,,0.00,weatherlink.com 1.10,2013-12-25 18:43:00,
2013-12-25 13:58:00,31.7,17.0,30.47,SW,232,2.0,-999.0,55,-99.99,,,0.00,weatherlink.com 1.10,2013-12-25 18:58:00,
2013-12-25 14:13:00,32.4,18.0,30.48,SW,215,3.0,-999.0,55,-99.99,,,0.00,weatherlink.com 1.10,2013-12-25 19:13:00,
2013-12-25 14:28:00,33.1,18.0,30.47,SW,215,6.0,-999.0,54,-99.99,,,0.00,weatherlink.com 1.10,2013-12-25 19:28:00,
2013-12-25 14:43:00,33.5,18.0,30.46,SSW,197,3.0,-999.0,53,-99.99,,,0.00,weatherlink.com 1.10,2013-12-25 19:43:00,
2013-12-25 14:58:00,33.9,16.0,30.46,WSW,240,4.0,-999.0,49,-99.99,,,0.00,weatherlink.com 1.10,2013-12-25 19:58:00,
2013-12-25 15:13:00,34.1,17.0,30.46,SW,231,2.0,-999.0,49,-99.99,,,0.00,weatherlink.com 1.10,2013-12-25 20:13:00,
2013-12-25 15:28:00,34.6,17.0,30.46,SW,230,2.0,-999.0,49,-99.99,,,0.00,weatherlink.com 1.10,2013-12-25 20:28:00,
2013-12-25 15:43:00,34.8,17.0,30.46,SW,224,3.0,-999.0,48,-99.99,,,0.00,weatherlink.com 1.10,2013-12-25 20:43:00,
2013-12-25 15:58:00,34.7,17.0,30.46,SW,225,4.0,-999.0,49,-99.99,,,0.00,weatherlink.com 1.10,2013-12-25 20:58:00,
2013-12-25 16:13:00,34.3,17.0,30.45,SW,233,4.0,-999.0,49,-99.99,,,0.00,weatherlink.com 1.10,2013-12-25 21:13:00,
2013-12-25 16:28:00,34.1,17.0,30.45,SW,231,0.0,-999.0,50,-99.99,,,0.00,weatherlink.com 1.10,2013-12-25 21:28:00,
2013-12-25 16:43:00,33.7,18.0,30.44,SW,231,0.0,-999.0,52,-99.99,,,0.00,weatherlink.com 1.10,2013-12-25 21:43:00,
2013-12-25 16:58:00,32.3,16.0,30.45,SW,214,3.0,-999.0,51,-99.99,,,0.00,weatherlink.com 1.10,2013-12-25 21:58:00,
2013-12-25 17:13:00,31.3,15.0,30.44,SSW,197,3.0,-999.0,51,-99.99,,,0.00,weatherlink.com 1.10,2013-12-25 22:13:00,
2013-12-25 17:28:00,30.6,15.0,30.44,SSW,197,3.0,-999.0,52,-99.99,,,0.00,weatherlink.com 1.10,2013-12-25 22:28:00,
2013-12-25 17:43:00,30.2,14.0,30.44,SSW,197,1.0,-999.0,52,-99.99,,,0.00,weatherlink.com 1.10,2013-12-25 22:43:00,
2013-12-25 17:58:00,30.0,14.0,30.45,SSW,196,3.0,-999.0,52,-99.99,,,0.00,weatherlink.com 1.10,2013-12-25 22:58:00,
2013-12-25 18:13:00,29.4,15.0,30.45,SSW,196,0.0,-999.0,55,-99.99,,,0.00,weatherlink.com 1.10,2013-12-25 23:13:00,
2013-12-25 18:28:00,28.7,15.0,30.44,SSW,196,1.0,-999.0,56,-99.99,,,0.00,weatherlink.com 1.10,2013-12-25 23:28:00,
2013-12-25 18:43:00,28.5,14.0,30.44,SSW,196,1.0,-999.0,56,-99.99,,,0.00,weatherlink.com 1.10,2013-12-25 23:43:00,
2013-12-25 18:58:00,28.5,14.0,30.44,SSW,196,1.0,-999.0,56,-99.99,,,0.00,weatherlink.com 1.10,2013-12-25 23:58:00,
2013-12-25 19:13:00,28.2,15.0,30.44,SSW,196,2.0,-999.0,58,-99.99,,,0.00,weatherlink.com 1.10,2013-12-26 00:13:00,
2013-12-25 19:28:00,28.5,15.0,30.43,SSW,196,1.0,-999.0,57,-99.99,,,0.00,weatherlink.com 1.10,2013-12-26 00:28:00,
2013-12-25 19:43:00,28.5,15.0,30.43,SSW,196,3.0,-999.0,57,-99.99,,,0.00,weatherlink.com 1.10,2013-12-26 00:43:00,
2013-12-25 19:58:00,29.4,15.0,30.43,SSW,192,3.0,-999.0,55,-99.99,,,0.00,weatherlink.com 1.10,2013-12-26 00:58:00,
2013-12-25 20:13:00,29.2,15.0,30.42,SSW,192,2.0,-999.0,55,-99.99,,,0.00,weatherlink.com 1.10,2013-12-26 01:13:00,
2013-12-25 20:28:00,28.6,15.0,30.42,SSW,192,0.0,-999.0,57,-99.99,,,0.00,weatherlink.com 1.10,2013-12-26 01:28:00,
2013-12-25 20:43:00,28.0,14.0,30.41,SSW,192,0.0,-999.0,57,-99.99,,,0.00,weatherlink.com 1.10,2013-12-26 01:43:00,
2013-12-25 20:58:00,27.6,14.0,30.42,SSW,192,0.0,-999.0,58,-99.99,,,0.00,weatherlink.com 1.10,2013-12-26 01:58:00,
2013-12-25 21:13:00,27.1,16.0,30.41,SSW,192,0.0,-999.0,62,-99.99,,,0.00,weatherlink.com 1.10,2013-12-26 02:13:00,
2013-12-25 21:28:00,26.2,16.0,30.41,SSW,192,1.0,-999.0,66,-99.99,,,0.00,weatherlink.com 1.10,2013-12-26 02:28:00,
2013-12-25 21:43:00,25.7,16.0,30.41,SSW,192,2.0,-999.0,66,-99.99,,,0.00,weatherlink.com 1.10,2013-12-26 02:43:00,
2013-12-25 21:58:00,24.8,16.0,30.41,SSW,192,0.0,-999.0,69,-99.99,,,0.00,weatherlink.com 1.10,2013-12-26 02:58:00,
2013-12-25 22:13:00,24.9,16.0,30.40,SSW,192,0.0,-999.0,68,-99.99,,,0.00,weatherlink.com 1.10,2013-12-26 03:13:00,
2013-12-25 22:28:00,24.9,16.0,30.40,SSW,192,0.0,-999.0,68,-99.99,,,0.00,weatherlink.com 1.10,2013-12-26 03:28:00,
2013-12-25 22:43:00,23.9,16.0,30.39,SSW,192,2.0,-999.0,72,-99.99,,,0.00,weatherlink.com 1.10,2013-12-26 03:43:00,
2013-12-25 22:58:00,23.3,16.0,30.39,SSW,192,0.0,-999.0,73,-99.99,,,0.00,weatherlink.com 1.10,2013-12-26 03:58:00,
2013-12-25 23:13:00,22.7,16.0,30.39,SSW,192,0.0,-999.0,75,-99.99,,,0.00,weatherlink.com 1.10,2013-12-26 04:13:00,
2013-12-25 23:28:00,22.3,16.0,30.38,SSW,192,0.0,-999.0,77,-99.99,,,0.00,weatherlink.com 1.10,2013-12-26 04:28:00,
2013-12-25 23:43:00,22.2,16.0,30.38,SSW,192,0.0,-999.0,78,-99.99,,,0.00,weatherlink.com 1.10,2013-12-26 04:43:00,
2013-12-25 23:58:00,22.0,16.0,30.38,SSW,192,0.0,-999.0,78,-99.99,,,0.00,weatherlink.com 1.10,2013-12-26 04:58:00,